SOYUZ-MS 17 (46613 NORAD) Tracking and Keplerian Element Data

This shows tracking and keplerian element data for the satellite.

Feedback or suggestion? Click here.




ElementValue
Catalog46613
NameSOYUZ-MS 17
Epoch Orbit25299
Epoch Day304.50209639
Epoch Year2020
RAAN38.9212
Inclination51.6473
Eccentricity0.0001739
Argument of Perigee72.2478
Mean Anonmoly35.5063
Mean Motion15.49350518
Decay Rate1.7E-06
L11 46613U 20072A 20304.50209639 .00000170 00000-0 11117-4 0 9997
L22 46613 51.6473 38.9212 0001739 72.2478 35.5063 15.49350518252993

Live tracking and technical data element details for SOYUZ-MS 17 (NORAD 46613). SOYUZ-MS 17 can be tracked NOW for your location showing map with azimuth and elevation plus other details from your city location.

Track the satellite on the map from your city or location and see movement details for azimuth, elevation, latitude, longitude, range, height, and movement on the map or in text.







IsCatalogInMostPopularTable: catalog: 46613, numindb: 7
Update: records affected: 1



GetName: 46613 SOYUZ-MS 17

Hit Count: updated at: Sat, 31 Oct 2020 11:21:13 GMT